| time (UTC) | temp C | wind direction | speed KPH | gust KPH | rain 1hr cm | rain 24hr cm | rain mn cm | humidity % | barometer mb |
| 20260509233005 | 12 | 178 | 1.6 | 3.2 | 0.97 | 3.10 | 0.03 | 99 | 1003.0 |
| 20260509232005 | 12 | 177 | 0.0 | 4.8 | 1.85 | 3.10 | 0.03 | 99 | 1002.8 |
| 20260509231005 | 12 | 166 | 3.2 | 14.5 | 2.03 | 3.10 | 0.03 | 99 | 1003.0 |
| 20260509230007 | 12 | 162 | 9.7 | 16.1 | 2.03 | 3.07 | 0.00 | 99 | 1003.2 |
| 20260509223005 | 12 | 179 | 8.0 | 25.7 | 1.09 | 2.13 | 2.13 | 96 | 1003.3 |
| 20260509222006 | 14 | 178 | 4.8 | 22.5 | 0.36 | 1.40 | 1.40 | 97 | 1003.1 |
| 20260509221005 | 15 | 155 | 8.0 | 14.5 | 0.05 | 1.09 | 1.09 | 91 | 1002.8 |
| 20260509220005 | 15 | 204 | 11.3 | 16.1 | 0.00 | 1.04 | 1.04 | 87 | 1002.8 |
| 20260509215005 | 15 | 183 | 9.7 | 20.9 | 0.00 | 1.04 | 1.04 | 85 | 1002.7 |
| 20260509214006 | 15 | 158 | 12.9 | 16.1 | 0.00 | 1.04 | 1.04 | 85 | 1002.6 |
| 20260509212006 | 15 | 117 | 9.7 | 14.5 | 0.00 | 1.09 | 1.04 | 85 | 1002.5 |
| 20260509211006 | 15 | 174 | 9.7 | 16.1 | 0.00 | 1.12 | 1.04 | 85 | 1002.4 |
| 20260509210005 | 15 | 169 | 11.3 | 14.5 | 0.00 | 1.14 | 1.04 | 85 | 1002.2 |
| 20260509205005 | 15 | 173 | 11.3 | 16.1 | 0.00 | 1.17 | 1.04 | 85 | 1002.1 |
| 20260509204005 | 15 | 198 | 6.4 | 12.9 | 0.00 | 1.19 | 1.04 | 85 | 1002.0 |
| 20260509203005 | 15 | 178 | 9.7 | 12.9 | 0.00 | 1.19 | 1.04 | 85 | 1001.8 |
| 20260509202005 | 15 | 182 | 9.7 | 14.5 | 0.00 | 1.22 | 1.04 | 85 | 1001.7 |
| 20260509201006 | 15 | 179 | 8.0 | 16.1 | 0.00 | 1.22 | 1.04 | 87 | 1001.5 |
| 20260509200005 | 15 | 177 | 11.3 | 16.1 | 0.00 | 1.22 | 1.04 | 87 | 1001.4 |
| 20260509195005 | 16 | 180 | 4.8 | 14.5 | 0.00 | 1.22 | 1.04 | 87 | 1001.3 |
| 20260509194006 | 16 | 169 | 3.2 | 14.5 | 0.00 | 1.22 | 1.04 | 87 | 1001.3 |
| 20260509193005 | 16 | 193 | 8.0 | 12.9 | 0.00 | 1.22 | 1.04 | 88 | 1001.2 |
| 20260509192005 | 16 | 181 | 9.7 | 14.5 | 0.00 | 1.22 | 1.04 | 85 | 1001.0 |
| 20260509191006 | 16 | 175 | 11.3 | 14.5 | 0.00 | 1.22 | 1.04 | 84 | 1000.8 |
| 20260509190006 | 16 | 171 | 9.7 | 14.5 | 0.00 | 1.22 | 1.04 | 83 | 1000.6 |
| 20260509185005 | 16 | 197 | 9.7 | 14.5 | 0.00 | 1.22 | 1.04 | 82 | 1000.6 |
| 20260509184005 | 16 | 173 | 11.3 | 16.1 | 0.00 | 1.22 | 1.04 | 83 | 1000.6 |
| 20260509183005 | 17 | 206 | 11.3 | 16.1 | 0.00 | 1.22 | 1.04 | 80 | 1000.4 |
| 20260509182005 | 16 | 191 | 14.5 | 20.9 | 0.00 | 1.22 | 1.04 | 82 | 1000.5 |
| 20260509180005 | 16 | 197 | 14.5 | 20.9 | 0.00 | 1.22 | 1.04 | 82 | 1000.2 |
| 20260509175006 | 16 | 180 | 9.7 | 16.1 | 0.00 | 1.22 | 1.04 | 76 | 1000.2 |
| 20260509174005 | 17 | 182 | 8.0 | 16.1 | 0.05 | 1.22 | 1.04 | 78 | 1000.2 |
| 20260509173005 | 16 | 190 | 9.7 | 12.9 | 0.10 | 1.22 | 1.04 | 80 | 1000.2 |
| 20260509172005 | 16 | 174 | 8.0 | 12.9 | 0.13 | 1.22 | 1.04 | 80 | 999.9 |
| 20260509171005 | 15 | 158 | 9.7 | 14.5 | 0.13 | 1.22 | 1.04 | 88 | 1000.0 |
| 20260509170005 | 15 | 184 | 8.0 | 16.1 | 0.13 | 1.22 | 1.04 | 92 | 999.9 |
| 20260509165005 | 15 | 185 | 8.0 | 19.3 | 0.13 | 1.22 | 1.04 | 95 | 1000.2 |
| 20260509164006 | 15 | 177 | 14.5 | 19.3 | 0.08 | 1.17 | 0.99 | 93 | 1000.3 |
| 20260509163005 | 15 | 179 | 9.7 | 14.5 | 0.03 | 1.12 | 0.94 | 88 | 999.9 |
| 20260509162005 | 15 | 248 | 11.3 | 25.7 | 0.00 | 1.09 | 0.91 | 82 | 999.9 |
| 20260509160005 | 15 | 238 | 9.7 | 19.3 | 0.03 | 1.09 | 0.91 | 81 | 999.3 |
| 20260509155007 | 16 | 224 | 8.0 | 12.9 | 0.03 | 1.09 | 0.91 | 84 | 999.1 |
| 20260509154111 | 16 | 191 | 11.3 | 16.1 | 0.03 | 1.09 | 0.91 | 84 | 998.9 |
| 20260509153009 | 16 | 197 | 11.3 | 20.9 | 0.03 | 1.09 | 0.91 | 84 | 998.6 |
| 20260509152006 | 16 | 180 | 16.1 | 24.1 | 0.03 | 1.09 | 0.91 | 86 | 998.4 |
| 20260509151005 | 16 | 248 | 19.3 | 25.7 | 0.00 | 1.07 | 0.89 | 80 | 998.3 |
| 20260509150005 | 17 | 180 | 19.3 | 33.8 | 0.00 | 1.07 | 0.89 | 79 | 998.3 |
| 20260509145005 | 18 | 205 | 25.7 | 33.8 | 0.05 | 1.07 | 0.89 | 74 | 998.2 |
| 20260509143005 | 18 | 180 | 17.7 | 22.5 | 0.25 | 1.07 | 0.89 | 79 | 998.2 |
| 20260509142005 | 17 | 202 | 14.5 | 25.7 | 0.25 | 1.07 | 0.89 | 81 | 998.3 |
| 20260509140006 | 17 | 188 | 11.3 | 16.1 | 0.25 | 1.07 | 0.89 | 85 | 998.0 |
| 20260509135005 | 17 | 217 | 9.7 | 24.1 | 0.20 | 1.02 | 0.84 | 83 | 998.0 |
| 20260509132005 | 20 | 195 | 19.3 | 25.7 | 0.00 | 0.81 | 0.64 | 57 | 997.5 |
| 20260509131005 | 21 | 202 | 17.7 | 27.4 | 0.00 | 0.81 | 0.64 | 56 | 997.6 |
| 20260509124005 | 21 | 212 | 19.3 | 27.4 | 0.00 | 0.81 | 0.64 | 56 | 997.3 |
| 20260509122005 | 21 | 202 | 16.1 | 24.1 | 0.00 | 0.81 | 0.64 | 54 | 997.2 |
| 20260509121005 | 21 | 187 | 22.5 | 29.0 | 0.00 | 0.81 | 0.64 | 54 | 997.4 |
| 20260509115005 | 20 | 194 | 25.7 | 25.7 | 0.00 | 0.81 | 0.64 | 61 | 997.3 |
| 20260509114005 | 20 | 164 | 19.3 | 25.7 | 0.00 | 0.81 | 0.64 | 63 | 997.2 |
| 20260509113005 | 20 | 202 | 25.7 | 27.4 | 0.00 | 0.81 | 0.64 | 62 | 997.2 |
| 20260509112005 | 18 | 195 | 17.7 | 22.5 | 0.00 | 0.81 | 0.64 | 67 | 997.1 |
| 20260509111005 | 18 | 197 | 16.1 | 27.4 | 0.00 | 0.81 | 0.64 | 67 | 996.8 |
| 20260509110005 | 18 | 200 | 19.3 | 24.1 | 0.00 | 0.81 | 0.64 | 64 | 996.6 |
| 20260509105005 | 20 | 200 | 17.7 | 27.4 | 0.00 | 0.81 | 0.64 | 61 | 996.6 |
| 20260509104005 | 18 | 189 | 11.3 | 20.9 | 0.00 | 0.81 | 0.64 | 68 | 996.7 |
| 20260509103004 | 18 | 208 | 12.9 | 19.3 | 0.00 | 0.81 | 0.64 | 69 | 996.7 |
| 20260509102005 | 18 | 190 | 16.1 | 24.1 | 0.00 | 0.81 | 0.64 | 69 | 996.5 |
| 20260509094005 | 19 | 138 | 12.9 | 22.5 | 0.00 | 0.81 | 0.64 | 67 | 996.3 |
| 20260509093005 | 18 | 168 | 12.9 | 14.5 | 0.00 | 0.81 | 0.64 | 71 | 996.5 |
| 20260509092004 | 18 | 158 | 11.3 | 24.1 | 0.00 | 0.81 | 0.64 | 70 | 996.5 |
| 20260509091005 | 18 | 141 | 9.7 | 19.3 | 0.00 | 0.81 | 0.64 | 74 | 996.6 |
| 20260509090005 | 18 | 193 | 4.8 | 12.9 | 0.03 | 0.81 | 0.64 | 78 | 996.5 |
| 20260509085004 | 17 | 163 | 9.7 | 14.5 | 0.03 | 0.81 | 0.64 | 81 | 996.5 |
| 20260509083005 | 16 | 150 | 14.5 | 16.1 | 0.05 | 0.81 | 0.64 | 88 | 996.5 |
| 20260509082004 | 15 | 90 | 8.0 | 12.9 | 0.05 | 0.81 | 0.64 | 92 | 996.5 |
| 20260509081005 | 15 | 138 | 3.2 | 9.7 | 0.08 | 0.81 | 0.64 | 92 | 996.7 |
| 20260509080004 | 15 | 147 | 4.8 | 14.5 | 0.08 | 0.79 | 0.61 | 97 | 996.9 |
| 20260509075005 | 14 | 100 | 1.6 | 11.3 | 0.08 | 0.79 | 0.61 | 99 | 996.9 |
| 20260509074005 | 13 | 90 | 1.6 | 3.2 | 0.08 | 0.79 | 0.61 | 99 | 996.9 |
| 20260509073004 | 13 | 143 | 1.6 | 11.3 | 0.08 | 0.76 | 0.58 | 98 | 997.0 |
| 20260509072004 | 13 | 80 | 4.8 | 16.1 | 0.13 | 0.76 | 0.58 | 96 | 997.0 |
| 20260509071005 | 13 | 159 | 12.9 | 16.1 | 0.18 | 0.74 | 0.56 | 94 | 997.0 |
| 20260509070005 | 13 | 178 | 8.0 | 16.1 | 0.20 | 0.71 | 0.53 | 96 | 996.9 |
| 20260509065005 | 13 | 126 | 11.3 | 14.5 | 0.25 | 0.71 | 0.53 | 97 | 996.9 |
| 20260509064004 | 13 | 124 | 11.3 | 20.9 | 0.25 | 0.71 | 0.53 | 97 | 996.9 |
| 20260509062005 | 13 | 112 | 14.5 | 20.9 | 0.18 | 0.64 | 0.46 | 96 | 996.9 |
| 20260509061005 | 14 | 123 | 16.1 | 20.9 | 0.10 | 0.56 | 0.38 | 96 | 996.7 |
| 20260509055005 | 14 | 112 | 11.3 | 14.5 | 0.00 | 0.46 | 0.28 | 97 | 996.3 |
| 20260509054005 | 13 | 165 | 3.2 | 14.5 | 0.00 | 0.46 | 0.28 | 98 | 996.3 |
| 20260509053005 | 13 | 64 | 6.4 | 14.5 | 0.00 | 0.46 | 0.28 | 98 | 996.3 |
| 20260509051006 | 13 | 147 | 1.6 | 9.7 | 0.05 | 0.46 | 0.28 | 99 | 996.5 |
| 20260509050005 | 13 | 138 | 4.8 | 11.3 | 0.15 | 0.46 | 0.28 | 99 | 996.6 |
| 20260509045005 | 13 | 172 | 3.2 | 9.7 | 0.15 | 0.46 | 0.28 | 99 | 996.6 |
| 20260509044005 | 13 | 152 | 1.6 | 3.2 | 0.25 | 0.46 | 0.28 | 98 | 996.6 |
| 20260509043006 | 13 | 210 | 0.0 | 9.7 | 0.25 | 0.46 | 0.28 | 98 | 996.8 |
| 20260509042005 | 13 | 69 | 3.2 | 9.7 | 0.25 | 0.46 | 0.28 | 98 | 996.9 |
| 20260509041006 | 13 | 142 | 0.0 | 9.7 | 0.20 | 0.41 | 0.23 | 97 | 997.1 |
| 20260509040006 | 13 | 75 | 4.8 | 12.9 | 0.10 | 0.30 | 0.13 | 94 | 997.3 |
| 20260509035006 | 13 | 129 | 9.7 | 20.9 | 0.10 | 0.30 | 0.13 | 93 | 997.3 |
| 20260509034006 | 14 | 158 | 11.3 | 19.3 | 0.00 | 0.20 | 0.03 | 88 | 997.3 |
| 20260509032005 | 14 | 90 | 9.7 | 14.5 | 0.00 | 0.20 | 0.03 | 88 | 997.5 |
| 20260509031005 | 13 | 97 | 9.7 | 14.5 | 0.00 | 0.20 | 0.03 | 89 | 997.8 |
| 20260509030006 | 13 | 135 | 11.3 | 16.1 | 0.00 | 0.20 | 0.03 | 89 | 997.9 |
| 20260509025005 | 13 | 111 | 4.8 | 11.3 | 0.00 | 0.20 | 0.03 | 89 | 997.9 |
| 20260509024006 | 13 | 113 | 6.4 | 12.9 | 0.00 | 0.20 | 0.03 | 88 | 997.9 |
| 20260509023005 | 13 | 81 | 6.4 | 12.9 | 0.00 | 0.20 | 0.03 | 88 | 997.8 |
| 20260509021005 | 13 | 128 | 6.4 | 9.7 | 0.00 | 0.20 | 0.03 | 87 | 998.3 |
| 20260509020005 | 13 | 332 | 0.0 | 0.0 | 0.00 | 0.20 | 0.03 | 86 | 998.6 |
| 20260509015006 | 13 | 174 | 1.6 | 11.3 | 0.00 | 0.20 | 0.03 | 84 | 998.7 |
| 20260509014005 | 14 | 184 | 1.6 | 11.3 | 0.00 | 0.20 | 0.03 | 84 | 998.7 |
| 20260509013005 | 14 | 212 | 8.0 | 9.7 | 0.00 | 0.20 | 0.03 | 83 | 999.0 |
| 20260509012005 | 14 | 183 | 6.4 | 9.7 | 0.03 | 0.20 | 0.03 | 83 | 999.0 |
| 20260509011006 | 14 | 167 | 8.0 | 14.5 | 0.03 | 0.20 | 0.03 | 82 | 999.1 |
| 20260509010006 | 14 | 167 | 9.7 | 16.1 | 0.03 | 0.20 | 0.03 | 83 | 999.1 |
| 20260509005005 | 14 | 173 | 8.0 | 16.1 | 0.03 | 0.20 | 0.03 | 83 | 998.9 |
| 20260509004005 | 14 | 128 | 14.5 | 22.5 | 0.03 | 0.20 | 0.03 | 84 | 998.9 |
| 20260509003006 | 14 | 168 | 11.3 | 14.5 | 0.03 | 0.20 | 0.03 | 86 | 998.9 |
| 20260509001006 | 14 | 147 | 9.7 | 14.5 | 0.00 | 0.18 | 0.00 | 84 | 999.1 |
| 20260509000005 | 15 | 147 | 9.7 | 14.5 | 0.00 | 0.18 | 0.00 | 84 | 999.3 |
| 20260508235005 | 15 | 158 | 9.7 | 16.1 | 0.00 | 0.18 | 0.00 | 84 | 999.2 |
| 20260508234006 | 15 | 147 | 9.7 | 24.1 | 0.00 | 0.18 | 0.00 | 84 | 999.2 |